Printer-friendly version

IAU Minor Planet Center

Minor Planet Center

MPEC 2006-R46 : 2006 RK1

The following Minor Planet Electronic Circular may be linked-to from your own Web pages, but must not otherwise be redistributed electronically.


Read MPEC 2006-R45 Read MPEC 2006-R47


M.P.E.C. 2006-R46                                Issued 2006 Sept. 13, 13:28 UT

     The Minor Planet Electronic Circulars contain information on unusual
         minor planets and routine data on comets.  They are published
   on behalf of Commission 20 of the International Astronomical Union by the
          Minor Planet Center, Smithsonian Astrophysical Observatory,
                          Cambridge, MA 02138, U.S.A.

                  Supported in part by the Brinson Foundation
                  Supported in part by the TABASGO Foundation
             Prepared using the Tamkin Foundation Computer Network

                              MPC@CFA.HARVARD.EDU
          URL http://cfa-www.harvard.edu/iau/mpc.html  ISSN 1523-6714

                                   2006 RK1

Observations:
     K06R01K* C2006 09 12.60531 21 41 40.52 -28 59 24.8          19.3 V ER046E12
     K06R01K  C2006 09 12.61388 21 41 44.23 -28 59 22.9          19.4 V ER046E12
     K06R01K  C2006 09 12.62243 21 41 47.97 -28 59 20.5          18.8 V ER046E12
     K06R01K  C2006 09 12.63101 21 41 51.79 -28 59 19.1          18.9 V ER046E12
     K06R01K  C2006 09 12.64042 21 41 55.92 -28 59 16.3          18.9 V ER046E12
     K06R01K  C2006 09 12.64130 21 41 56.32 -28 59 16.4          18.7 V ER046E12
     K06R01K  C2006 09 12.64218 21 41 56.77 -28 59 16.3          18.6 V ER046E12
     K06R01K  C2006 09 12.64438 21 41 57.73 -28 59 15.7          18.8 V ER046E12
     K06R01K  C2006 09 12.65429 21 42 02.05 -28 59 12.9          18.9 V ER046E12
     K06R01K  C2006 09 12.67427 21 42 10.94 -28 59 08.1          18.8 V ER046E12
     K06R01K  C2006 09 12.69445 21 42 19.94 -28 59 02.8          19.7 R ER046E12
     K06R01K  C2006 09 12.88172 21 43 47.97 -28 59 40.9                 ER046246
     K06R01K  C2006 09 12.88331 21 43 48.64 -28 59 40.9                 ER046246
     K06R01K  C2006 09 12.88438 21 43 49.19 -28 59 39.3                 ER046246
     K06R01K  C2006 09 12.88794 21 43 50.69 -28 59 39.8                 ER046246
     K06R01K  C2006 09 12.88902 21 43 51.13 -28 59 41.2                 ER046246
     K06R01K  C2006 09 13.05965 21 45 06.80 -28 58 22.8          18.9 R ER046I77
     K06R01K  C2006 09 13.06173 21 45 07.79 -28 58 22.5          18.9 R ER046I77
     K06R01K  C2006 09 13.06484 21 45 09.06 -28 58 21.4          19.0 R ER046I77
     K06R01K  C2006 09 13.15175 21 45 48.38 -28 58 44.4          19.9 R ER046734
     K06R01K  C2006 09 13.15561 21 45 50.19 -28 58 45.7          20.0 R ER046734
     K06R01K  C2006 09 13.15945 21 45 51.69 -28 58 44.2          19.5 R ER046734
     K06R01K 5C2006 09 13.26343 21 46 36.25 -28 58 20.5          19.4 R ER046673
     K06R01K 5C2006 09 13.27014 21 46 39.02 -28 58 18.8                 ER046673
     K06R01K 5C2006 09 13.27604 21 46 41.42 -28 58 17.4                 ER046673
     K06R01K 5C2006 09 13.28067 21 46 43.31 -28 58 16.2                 ER046673
     K06R01K  C2006 09 13.38269 21 47 30.53 -28 56 55.8          19.2 R ER046E12
     K06R01K  C2006 09 13.38566 21 47 31.73 -28 56 55.1          19.1 R ER046E12
     K06R01K  C2006 09 13.42117 21 47 45.04 -28 56 41.8          19.1 R ER046474
     K06R01K  C2006 09 13.42285 21 47 45.76 -28 56 41.3          19.1 R ER046474
     K06R01K  C2006 09 13.42620 21 47 47.11 -28 56 40.7          19.1 R ER046474

Observer details:
246 Klet Observatory-KLENOT.  Observers M. Tichy, J. Ticha.  Measurer M. Tichy.
    1.06-m KLENOT Telescope + CCD.
474 Mount John Observatory, Lake Tekapo.  Observer A. C. Gilmore.  0.6-m f/6.4
    reflector + CCD.
673 Table Mountain Observatory, Wrightwood.  Observer J. Young.  0.61-m f/16
    Cassegrain + CCD.
734 Farpoint Observatory.  Observer D. Tibbets.  Measurer G. Hug.  0.7-m
    reflector + CCD.
E12 Siding Spring Survey.  Observer R. H. McNaught.  Measurers E. C. Beshore,
    E. J. Christensen, G. J. Garradd, A. R. Gibbs, A. D. Grauer, R. E. Hill,
    R. A. Kowalski, S. M. Larson, R. H. McNaught.  0.5-m Uppsala Schmidt + CCD.
I77 CEAMIG-REA Observatory, Belo Horizonte.  Observers C. Jacques, E. Pimentel.
    Measurer C. Jacques.  0.30-m f/3.0 Schmidt-Cassegrain + CCD.

Orbital elements:
2006 RK1                                            PHA, Earth MOID = 0.0277 AU
Epoch 2006 Sept. 22.0 TT = JDT 2454000.5                MPC
M  21.86061              (2000.0)            P               Q
n   0.35620776     Peri.  131.16993     +0.26659559     +0.96100281
a   1.9709115      Node   154.01429     -0.92687856     +0.27653826
e   0.5227362      Incl.    9.65547     -0.26424030     -0.00044758
P   2.77           H   21.8           G   0.15           U   8
Residuals in seconds of arc
060912 E12  0.7+  0.0     060912 246  0.3-  0.1+    060913 673  0.7+  0.2-
060912 E12  0.2-  0.0     060912 246  0.5-  0.2-    060913 673  0.7+  0.0
060912 E12  0.5-  0.5+    060912 246  0.6+  1.2+    060913 673  0.2+  0.0
060912 E12  0.0   0.2-    060912 246  0.2+  0.1+    060913 673  0.0   0.1+
060912 E12  0.4-  0.3+    060912 246  0.1-  1.5-    060913 E12  0.3+  0.2-
060912 E12  0.2-  0.0     060913 I77  0.9-  0.2+    060913 E12  0.2-  0.2+
060912 E12  0.6+  0.1-    060913 I77  0.7+  0.0     060913 474  0.4-  0.0
060912 E12  0.4+  0.1-    060913 I77  0.3+  0.5+    060913 474  0.0   0.1+
060912 E12  0.4-  0.2+    060913 734  1.6-  0.9+    060913 474  0.3-  0.0
060912 E12  0.0   0.3-    060913 734  1.0+  1.1-
060912 E12  0.2+  0.5-    060913 734  0.4-  0.2-

Ephemeris:
2006 RK1                 a,e,i = 1.97, 0.52, 10                  q = 0.9406
Date    TT    R. A. (2000) Decl.     Delta      r     Elong.  Phase     V
2006 09 12    21 36.95   -29 00.5    0.153    1.136   145.4    30.2    19.3
2006 09 22    22 32.52   -27 43.1    0.232    1.203   146.3    27.6    20.3
2006 10 02    23 01.43   -25 39.0    0.322    1.275   143.7    27.7    21.1
2006 10 12    23 20.14   -23 25.1    0.424    1.349   139.6    28.7    21.8

Kyle E. Smalley              (C) Copyright 2006 MPC           M.P.E.C. 2006-R46

Read MPEC 2006-R45 Read MPEC 2006-R47


Our Web policy. Index to the CBAT/MPC/ICQ pages.


Valid HTML 4.01!